#timestamp,LO_Frequency,Hit 
1505401215.9,286046994.1,N
1505401235.7,286046994.7,N
1505401255.5,286046998.9,N
1505401275.4,286047002.9,N
1505401295.2,286047000.8,N
1505401315.0,286046998.9,N
1505401315.9,286046998.9,N
1505401335.8,286046996.7,N
1505401355.6,286046995.5,N
1505401375.4,286046997.6,N
1505401395.3,286047002.6,N
1505401415.1,286047003.9,N
1505401435.8,286047003.7,N
1505401455.7,286047003.6,N
1505401475.5,286046998.2,N
1505401495.3,286046998.1,N
1505401515.2,286046997.7,N
1505401535.9,286046998.0,N
1505401555.7,286046992.6,N
1505401575.6,286046993.8,N
1505401595.4,286046991.9,N
1505401615.2,286046993.1,N
1505401635.1,286046997.3,N
1505401636.0,286046997.3,N
1505401655.8,286047003.7,N
1505401675.6,286047003.0,N
1505401695.5,286047001.3,N
1505401715.3,286047002.8,N
1505401735.1,286047003.5,N
1505401755.8,286047001.0,N
1505401775.7,286047000.8,N
1505401795.5,286046998.6,N
1505401815.3,286047000.7,N
1505401835.2,286047000.7,N
1505401855.0,286047003.7,N
1505401855.9,286047003.7,N
1505401875.7,286047000.3,N
1505401895.6,286046998.4,N
1505401915.4,286046999.0,N
1505401935.2,286047000.0,N
1505401955.1,286046999.1,N
1505401956.0,286046999.1,N
1505401975.8,286046996.7,N
1505401995.6,286047000.9,N
1505402015.5,286047002.3,N
1505402035.3,286047001.3,N
1505402055.1,286047003.9,N
1505402075.9,286047002.1,N
1505402095.7,286047000.4,N
1505402115.5,286047000.7,N
1505402135.4,286047000.8,N
1505402155.2,286046997.2,N
1505402175.0,286046995.7,N
1505402175.9,286046995.7,N
1505402195.8,286046997.6,N
1505402215.6,286046999.1,N
1505402235.4,286046996.2,N
1505402255.3,286046995.9,N
1505402275.1,286046997.6,N
1505402276.0,286046997.6,N
1505402295.8,286046995.4,N
1505402315.6,286046995.5,N
1505402335.5,286046996.3,N
1505402355.3,286046993.6,N
1505402375.1,286046999.1,N
1505402395.9,286047000.2,N
1505402415.7,286046999.1,N
1505402435.5,286046993.7,N
1505402455.4,286046997.3,N
1505402475.2,286046995.7,N
1505402495.0,286046998.7,N
1505402495.9,286046998.7,N
1505402515.8,286046999.9,N
1505402535.6,286047000.5,N
1505402555.4,286047000.4,N
1505402575.3,286046999.6,N
1505402595.1,286046997.1,N
1505402596.0,286046997.1,N
1505402615.8,286046996.9,N
1505402635.7,286046998.6,N
1505402655.5,286046993.5,P
1505402675.3,286046996.5,N
1505402695.2,286046995.3,N
1505402715.9,286046993.6,P
1505402735.7,286046998.7,N
1505402755.6,286046997.8,N
1505402775.4,286047002.4,N
1505402795.2,286047003.6,N
1505402815.1,286047005.1,N
1505402816.0,286047005.1,N
1505402835.8,286047004.2,N
1505402855.6,286047003.7,N
1505402875.5,286047000.5,N
1505402895.3,286047000.3,N
1505402915.1,286047001.0,N
1505402935.8,286046999.3,N
1505402955.7,286046999.7,N
1505402975.5,286047002.8,N
1505402995.3,286047002.2,N
1505403015.2,286047001.3,N
1505403035.9,286047006.6,N
1505403055.7,286047008.1,N
1505403075.6,286047006.3,N
1505403095.4,286047004.7,N
1505403115.2,286047004.6,N
1505403135.1,286047004.8,N
1505403136.0,286047004.8,N
1505403155.8,286047005.3,N
1505403175.6,286047006.8,N
1505403195.5,286047007.1,N
1505403215.3,286047004.0,N
1505403235.1,286047002.9,N
1505403255.9,286047008.0,N
1505403275.7,286047013.2,P
1505403295.5,286047011.2,N
1505403315.4,286047009.0,N
1505403335.2,286047005.8,N
1505403355.0,286047005.4,N
1505403355.9,286047005.4,N
1505403375.8,286047003.3,N
1505403395.6,286047000.1,N
1505403415.4,286047001.6,N
1505403435.2,286047007.0,N
1505403455.1,286047004.9,N
1505403456.0,286047004.9,N
1505403475.8,286047007.5,N
1505403495.6,286047007.6,N
1505403515.5,286047011.2,P
1505403535.3,286047003.9,N
1505403555.1,286046999.7,N
1505403575.9,286047002.4,N
1505403595.7,286046998.5,N
1505403615.5,286046999.5,N
1505403635.4,286047001.4,N
1505403655.2,286047001.2,N
1505403675.0,286046998.9,N
1505403675.9,286046998.9,N
1505403695.8,286046999.1,N
1505403715.6,286046998.2,N
1505403735.4,286046996.1,N
1505403755.3,286046995.5,N
1505403775.1,286046993.9,N
1505403776.0,286046993.9,N
1505403795.8,286046993.7,N
1505403815.7,286046997.5,N
1505403835.5,286046993.8,N
1505403855.3,286046994.9,N
1505403875.1,286046994.0,N
1505403895.9,286046991.9,N
1505403915.7,286046996.1,N
1505403935.5,286046993.9,N
1505403955.4,286046994.3,N
1505403975.2,286046995.6,N
1505403995.0,286046992.6,N
1505403995.9,286046992.6,N
1505404015.8,286046993.9,N
1505404035.6,286046992.6,N
1505404055.4,286046993.9,N
1505404075.3,286046996.0,N
1505404095.1,286046994.0,N
1505404096.0,286046994.0,N
1505404115.8,286046994.0,N
1505404135.7,286046994.7,N
1505404155.5,286046995.0,N
1505404175.3,286046996.3,N
1505404195.1,286046994.5,N
1505404215.9,286046993.9,P
1505404235.7,286046997.5,P
1505404255.6,286046997.6,N
1505404275.4,286046998.5,N
1505404295.2,286046999.1,N
1505404315.0,286046998.8,N
1505404316.0,286046998.8,N
1505404335.8,286046997.0,N
1505404355.6,286047000.7,N
1505404375.4,286046998.9,N
1505404395.3,286046998.7,N
1505404415.1,286047000.5,N
1505404435.8,286047000.8,N
1505404455.7,286046998.8,N
1505404475.5,286047001.9,N
1505404495.3,286047004.0,N
1505404515.2,286047002.2,N
1505404535.9,286046998.3,N
1505404555.7,286046995.3,N
1505404575.6,286046997.1,N
1505404595.4,286046994.3,N
1505404615.2,286046995.2,N
1505404635.0,286046995.1,N
1505404636.0,286046995.1,N
1505404655.8,286046995.8,N
1505404675.6,286046998.2,N
1505404695.4,286046994.9,N
1505404715.3,286046998.9,N
1505404735.1,286046999.2,N
1505404755.8,286046999.7,N
1505404775.7,286046998.9,N
1505404795.5,286046999.3,N
